Marshfield, MA

5:21 AM EST on December 13, 2017 (GMT -0500)
Marshfield

Weather History for KGHG - August, 2013

Change the Weather History Date:

Thursday, August 29, 2013

  Actual Average (KPYM) Record (KPYM)
Temperature  
Mean Temperature 65 °F -  
Max Temperature 66 °F 78 °F 95 °F (1953)
Min Temperature 62 °F 59 °F 43 °F (1982)
Growing Degree Days 15 (Base 50)    
Moisture  
Dew Point 62 °F    
Average Humidity 91    
Maximum Humidity 100    
Minimum Humidity 77    
Precipitation  
Precipitation 0.00 in - - ()
Sea Level Pressure  
Sea Level Pressure 30.04 in    
Wind  
Wind Speed 6 mph (NNE)    
Max Wind Speed 13 mph    
Max Gust Speed 18 mph    
Visibility 8 miles    
Events      
Averages and records for this station are not official NWS values.
T = Trace of Precipitation, MM = Missing Value Source: NWS Daily Summary

Daily Weather History Graph

Daily Weather History Graph

Search for Another Location

Airport or City:

Trip Planner

Search our weather history database for the weather conditions in past years. The results will help you decide how hot, cold, wet, or windy it might be!

Date:

Astronomy

Aug. 29, 2013 Rise Set
Actual Time 6:05 AM EDT 7:21 PM EDT
Civil Twilight 5:36 AM EDT 7:49 PM EDT
Nautical Twilight 5:01 AM EDT 8:24 PM EDT
Astronomical Twilight 4:24 AM EDT 9:00 PM EDT
Moon No Moon Rise 2:50 PM EDT (8/29)
Length of Visible Light 14h 13m
Length of Day
13h 15m
Last Quarter, 38% of the Moon is Illuminated
Aug 29
Last Quarter
Sep 5
New
Sep 12
First Quarter
Sep 19
Full
Sep 26
Last Quarter

Hourly Weather History & Observations

Time (EDT) Temp. Dew Point Humidity Pressure Visibility Wind Dir Wind Speed Gust Speed Precip Events Conditions
12:15 AM 64.4 °F 64.4 °F 100% 29.98 in 2.5 mi North 5.8 mph - N/A   Light Drizzle
12:35 AM 64.4 °F 64.4 °F 100% 29.98 in 4.0 mi NNE 4.6 mph - N/A   Light Drizzle
12:55 AM 64.4 °F 64.4 °F 100% 29.98 in 1.5 mi North 5.8 mph - N/A   Light Drizzle
1:15 AM 64.4 °F 64.4 °F 100% 29.98 in 1.8 mi North 4.6 mph - N/A   Light Drizzle
1:35 AM 64.4 °F 64.4 °F 100% 29.98 in 1.2 mi NNE 4.6 mph - N/A   Drizzle
1:55 AM 64.4 °F 64.4 °F 100% 29.98 in 1.0 mi North 3.5 mph - N/A   Drizzle
2:15 AM 64.4 °F 64.4 °F 100% 29.98 in 0.8 mi North 4.6 mph - N/A   Light Drizzle
2:35 AM 64.4 °F 64.4 °F 100% 29.97 in 1.0 mi Calm Calm - N/A   Light Drizzle
2:55 AM 64.4 °F 64.4 °F 100% 29.97 in 1.0 mi North 5.8 mph - N/A   Light Drizzle
3:15 AM 64.4 °F 64.4 °F 100% 29.97 in 1.0 mi North 5.8 mph - N/A   Light Drizzle
3:35 AM 64.4 °F 64.4 °F 100% 29.98 in 1.8 mi NNE 4.6 mph - N/A   Light Drizzle
3:55 AM 66.2 °F 66.2 °F 100% 29.98 in 3.0 mi North 4.6 mph - N/A   Light Drizzle
4:15 AM 66.2 °F 66.2 °F 100% 29.98 in 10.0 mi NNE 5.8 mph - N/A   Light Drizzle
4:35 AM 66.2 °F 66.2 °F 100% 29.99 in 3.0 mi NNE 5.8 mph - N/A   Light Drizzle
4:55 AM 66.2 °F 64.4 °F 94% 30.00 in 10.0 mi North 5.8 mph - N/A   Light Drizzle
5:15 AM 66.2 °F 64.4 °F 94% 30.00 in 10.0 mi NNE 6.9 mph - N/A   Light Drizzle
5:35 AM 66.2 °F 64.4 °F 94% 30.00 in 3.0 mi NNE 8.1 mph - N/A   Light Drizzle
5:55 AM 64.4 °F 64.4 °F 100% 30.00 in 0.2 mi North 9.2 mph - N/A   Light Drizzle
6:15 AM 64.4 °F 64.4 °F 100% 30.01 in 0.8 mi North 8.1 mph - N/A   Light Drizzle
6:35 AM 64.4 °F 64.4 °F 100% 30.02 in 10.0 mi NNE 6.9 mph - N/A   Light Drizzle
6:55 AM 66.2 °F 66.2 °F 100% 30.02 in 2.0 mi NNE 5.8 mph - N/A   Light Drizzle
7:15 AM 66.2 °F 66.2 °F 100% 30.02 in 10.0 mi NNE 8.1 mph - N/A   Overcast
7:35 AM 66.2 °F 66.2 °F 100% 30.02 in 10.0 mi NNE 10.4 mph - N/A   Overcast
7:55 AM 66.2 °F 64.4 °F 94% 30.02 in 10.0 mi NNE 6.9 mph - N/A   Overcast
8:15 AM 66.2 °F 64.4 °F 94% 30.03 in 10.0 mi North 6.9 mph - N/A   Overcast
8:35 AM 66.2 °F 64.4 °F 94% 30.04 in 10.0 mi NNE 6.9 mph - N/A   Overcast
8:55 AM 66.2 °F 64.4 °F 94% 30.04 in 10.0 mi NNE 5.8 mph - N/A   Overcast
9:15 AM 66.2 °F 64.4 °F 94% 30.04 in 10.0 mi North 6.9 mph - N/A   Overcast
9:35 AM 64.4 °F 64.4 °F 100% 30.05 in 10.0 mi NNE 8.1 mph - N/A   Overcast
9:55 AM 64.4 °F 64.4 °F 100% 30.05 in 10.0 mi North 6.9 mph - N/A   Overcast
10:15 AM 64.4 °F 64.4 °F 100% 30.05 in 10.0 mi NNE 8.1 mph - N/A   Overcast
10:35 AM 66.2 °F 64.4 °F 94% 30.06 in 10.0 mi NNE 6.9 mph - N/A   Overcast
10:55 AM 66.2 °F 64.4 °F 94% 30.06 in 10.0 mi NNE 8.1 mph 16.1 mph N/A   Overcast
11:15 AM 66.2 °F 64.4 °F 94% 30.06 in 10.0 mi NNE 9.2 mph - N/A   Overcast
11:35 AM 66.2 °F 64.4 °F 94% 30.06 in 9.0 mi NNE 8.1 mph - N/A   Overcast
11:55 AM 66.2 °F 64.4 °F 94% 30.07 in 9.0 mi NNE 8.1 mph - N/A   Overcast
12:15 PM 66.2 °F 64.4 °F 94% 30.06 in 3.0 mi NNE 8.1 mph 17.3 mph N/A   Overcast
12:35 PM 64.4 °F 64.4 °F 100% 30.06 in 0.8 mi NE 9.2 mph 16.1 mph N/A   Drizzle
12:55 PM 64.4 °F 64.4 °F 100% 30.06 in 2.0 mi NE 12.7 mph - N/A   Light Drizzle
1:15 PM 64.4 °F 64.4 °F 100% 30.06 in 4.0 mi NNE 6.9 mph - N/A   Light Drizzle
1:35 PM 66.2 °F 62.6 °F 88% 30.06 in 10.0 mi NE 10.4 mph 16.1 mph N/A   Light Drizzle
1:55 PM 66.2 °F 62.6 °F 88% 30.06 in 10.0 mi NE 12.7 mph 18.4 mph N/A   Light Drizzle
2:15 PM 66.2 °F 62.6 °F 88% 30.06 in 10.0 mi NNE 8.1 mph 16.1 mph N/A   Overcast
2:35 PM 66.2 °F 62.6 °F 88% 30.06 in 10.0 mi NE 8.1 mph - N/A   Overcast
2:55 PM 66.2 °F 60.8 °F 83% 30.06 in 10.0 mi NNE 10.4 mph 16.1 mph N/A   Overcast
3:15 PM 66.2 °F 60.8 °F 83% 30.06 in 10.0 mi NNE 10.4 mph 17.3 mph N/A   Overcast
3:35 PM 66.2 °F 60.8 °F 83% 30.06 in 10.0 mi NNE 9.2 mph - N/A   Overcast
3:55 PM 64.4 °F 60.8 °F 88% 30.06 in 10.0 mi NNE 9.2 mph - N/A   Overcast
4:15 PM 64.4 °F 60.8 °F 88% 30.07 in 10.0 mi NNE 11.5 mph - N/A   Overcast
4:35 PM 64.4 °F 60.8 °F 88% 30.07 in 10.0 mi NNE 10.4 mph - N/A   Overcast
4:55 PM 64.4 °F 60.8 °F 88% 30.07 in 10.0 mi NE 8.1 mph 16.1 mph N/A   Overcast
5:15 PM 64.4 °F 60.8 °F 88% 30.08 in 10.0 mi NE 10.4 mph 16.1 mph N/A   Overcast
5:35 PM 64.4 °F 60.8 °F 88% 30.08 in 10.0 mi NNE 8.1 mph - N/A   Overcast
5:55 PM 64.4 °F 60.8 °F 88% 30.08 in 10.0 mi NE 9.2 mph - N/A   Overcast
6:15 PM 64.4 °F 59.0 °F 83% 30.08 in 10.0 mi NNE 6.9 mph - N/A   Overcast
6:35 PM 64.4 °F 57.2 °F 77% 30.08 in 10.0 mi NE 8.1 mph - N/A   Overcast
6:55 PM 64.4 °F 57.2 °F 77% 30.08 in 10.0 mi NE 8.1 mph - N/A   Overcast
7:15 PM 64.4 °F 57.2 °F 77% 30.08 in 10.0 mi NE 9.2 mph - N/A   Overcast
7:35 PM 64.4 °F 57.2 °F 77% 30.07 in 10.0 mi NE 8.1 mph - N/A   Overcast
7:55 PM 64.4 °F 57.2 °F 77% 30.07 in 10.0 mi NE 6.9 mph - N/A   Overcast
8:15 PM 64.4 °F 57.2 °F 77% 30.07 in 10.0 mi NE 5.8 mph - N/A   Overcast
8:35 PM 64.4 °F 57.2 °F 77% 30.07 in 10.0 mi NNE 4.6 mph - N/A   Overcast
8:55 PM 64.4 °F 57.2 °F 77% 30.06 in 10.0 mi NE 4.6 mph - N/A   Overcast
9:15 PM 64.4 °F 57.2 °F 77% 30.07 in 10.0 mi NE 4.6 mph - N/A   Overcast
9:35 PM 64.4 °F 57.2 °F 77% 30.07 in 10.0 mi NNE 4.6 mph - N/A   Overcast
9:55 PM 64.4 °F 57.2 °F 77% 30.07 in 10.0 mi NNE 3.5 mph - N/A   Overcast
10:15 PM 64.4 °F 57.2 °F 77% 30.07 in 10.0 mi North 4.6 mph - N/A   Overcast
10:35 PM 64.4 °F 59.0 °F 83% 30.06 in 10.0 mi North 4.6 mph - N/A   Overcast
10:55 PM 64.4 °F 59.0 °F 83% 30.06 in 10.0 mi North 3.5 mph - N/A   Overcast
11:15 PM 64.4 °F 59.0 °F 83% 30.05 in 10.0 mi North 4.6 mph - N/A   Overcast
11:35 PM 64.4 °F 59.0 °F 83% 30.04 in 10.0 mi Calm Calm - N/A   Overcast
11:55 PM 62.6 °F 59.0 °F 88% 30.04 in 10.0 mi NW 3.5 mph - N/A   Overcast